Location: Gisborne
(38.6530°S, 178.0040°E)
Time: 14:30:34
(UTC+13:00)

ISS - Pass Details

Date: 01 February 2019
Orbit: 403 x 411 km, 51.6° (Epoch: 19 February)

Event Time Altitude Azimuth Distance (km) Brightness Sun altitude
Exits shadow 05:20:42 12° 266° (W) 1,387 -1.6 -10.9°
Maximum altitude 05:23:17 27° 209° (SSW) 850 -2.2 -10.5°
Drops below altitude 10° 05:26:12 10° 149° (SSE) 1,498 0.2 -10.0°
Sets 05:28:31 0° 136° (SE) 2,363 1.9 -9.6°
